Year,Month,Day,Hour,Minute,Value (Times are PST for temperature in C)
2023,04,19,08,17,5.60
2023,04,19,08,18,5.60
2023,04,19,08,19,5.60
2023,04,19,08,20,5.60
2023,04,19,08,21,5.60
2023,04,19,08,22,5.60
2023,04,19,08,23,5.60
2023,04,19,08,24,5.70
2023,04,19,08,25,5.70
2023,04,19,08,26,5.70
2023,04,19,08,27,5.70
2023,04,19,08,28,5.70
2023,04,19,08,29,5.70
2023,04,19,08,30,5.70
2023,04,19,08,31,5.70
2023,04,19,08,32,5.80
2023,04,19,08,33,5.80
2023,04,19,08,34,5.70
2023,04,19,08,35,5.70
2023,04,19,08,36,5.70
2023,04,19,08,37,5.70
2023,04,19,08,38,5.60
2023,04,19,08,39,5.60
2023,04,19,08,40,5.60
2023,04,19,08,41,5.60
2023,04,19,08,42,5.60
2023,04,19,08,43,5.60
2023,04,19,08,44,5.60
2023,04,19,08,45,5.60
2023,04,19,08,46,5.50
2023,04,19,08,47,5.60
2023,04,19,08,48,5.60
2023,04,19,08,49,5.60
2023,04,19,08,50,5.60
2023,04,19,08,51,5.60
2023,04,19,08,52,5.60
2023,04,19,08,53,5.70
2023,04,19,08,54,5.70
2023,04,19,08,55,5.70
2023,04,19,08,56,5.70
2023,04,19,08,57,5.80
2023,04,19,08,58,5.80
2023,04,19,08,59,5.80
2023,04,19,09,00,5.90
2023,04,19,09,01,5.90
2023,04,19,09,02,5.90
2023,04,19,09,03,6.00
2023,04,19,09,04,6.00
2023,04,19,09,05,6.10
2023,04,19,09,06,6.10
2023,04,19,09,07,6.20
2023,04,19,09,08,6.20
2023,04,19,09,09,6.20
2023,04,19,09,10,6.20
2023,04,19,09,11,6.20
2023,04,19,09,12,6.20
2023,04,19,09,13,6.20
2023,04,19,09,14,6.20
2023,04,19,09,15,6.20
2023,04,19,09,16,6.20
2023,04,19,09,17,6.20
2023,04,19,09,18,6.20
2023,04,19,09,19,6.20
2023,04,19,09,20,6.20
2023,04,19,09,21,6.20
2023,04,19,09,22,6.20
2023,04,19,09,23,6.20
2023,04,19,09,24,6.20
2023,04,19,09,25,6.20
2023,04,19,09,26,6.30
2023,04,19,09,27,6.30
2023,04,19,09,28,6.30
2023,04,19,09,29,6.30
2023,04,19,09,30,6.30
2023,04,19,09,31,6.30
2023,04,19,09,32,6.40
2023,04,19,09,33,6.40
2023,04,19,09,34,6.40
2023,04,19,09,35,6.50
2023,04,19,09,36,6.60
2023,04,19,09,37,6.60
2023,04,19,09,38,6.60
2023,04,19,09,39,6.70
2023,04,19,09,40,6.70
2023,04,19,09,41,6.70
2023,04,19,09,42,6.70
2023,04,19,09,43,6.70
2023,04,19,09,44,6.80
2023,04,19,09,45,6.80
2023,04,19,09,46,6.80
2023,04,19,09,47,6.80
2023,04,19,09,48,6.80
2023,04,19,09,49,6.90
2023,04,19,09,50,6.90
2023,04,19,09,51,6.90
2023,04,19,09,52,7.00
2023,04,19,09,53,6.90
2023,04,19,09,54,7.00
2023,04,19,09,55,7.10
2023,04,19,09,56,7.10
2023,04,19,09,57,7.10
2023,04,19,09,58,7.10
2023,04,19,09,59,7.10
2023,04,19,10,00,7.10
2023,04,19,10,01,7.10
2023,04,19,10,02,7.20
2023,04,19,10,03,7.20
2023,04,19,10,04,7.20
2023,04,19,10,05,7.20
2023,04,19,10,06,7.30
2023,04,19,10,07,7.30
2023,04,19,10,08,7.30
2023,04,19,10,09,7.30
2023,04,19,10,10,7.30
2023,04,19,10,11,7.30
2023,04,19,10,12,7.30
2023,04,19,10,13,7.30
2023,04,19,10,14,7.30
2023,04,19,10,15,7.30
2023,04,19,10,16,7.30
2023,04,19,10,17,7.30
2023,04,19,10,18,7.30
2023,04,19,10,19,7.30
2023,04,19,10,20,7.30
2023,04,19,10,21,7.30
2023,04,19,10,22,7.30
2023,04,19,10,23,7.40
2023,04,19,10,24,7.40
2023,04,19,10,25,7.50
2023,04,19,10,26,7.50
2023,04,19,10,27,7.60
2023,04,19,10,28,7.70
2023,04,19,10,29,7.80
2023,04,19,10,30,7.90
2023,04,19,10,31,7.90
2023,04,19,10,32,8.00
2023,04,19,10,33,8.10
2023,04,19,10,34,8.20
2023,04,19,10,35,8.20
2023,04,19,10,36,8.30
2023,04,19,10,37,8.30
2023,04,19,10,38,8.30
2023,04,19,10,39,8.30
2023,04,19,10,40,8.30
2023,04,19,10,41,8.20
2023,04,19,10,42,8.10
2023,04,19,10,43,8.00
2023,04,19,10,44,7.90
2023,04,19,10,45,7.80
2023,04,19,10,46,7.80
2023,04,19,10,47,7.70
2023,04,19,10,48,7.70
2023,04,19,10,49,7.60
2023,04,19,10,50,7.50
2023,04,19,10,51,7.50
2023,04,19,10,52,7.40
2023,04,19,10,53,7.40
2023,04,19,10,54,7.40
2023,04,19,10,55,7.40
2023,04,19,10,56,7.40
2023,04,19,10,57,7.40
2023,04,19,10,58,7.40
2023,04,19,10,59,7.40
2023,04,19,11,00,7.50
2023,04,19,11,01,7.50
2023,04,19,11,02,7.60
2023,04,19,11,03,7.80
2023,04,19,11,04,7.90
2023,04,19,11,05,8.10
2023,04,19,11,06,8.20
2023,04,19,11,07,8.30
2023,04,19,11,08,8.40
2023,04,19,11,09,8.40
2023,04,19,11,10,8.40
2023,04,19,11,11,8.50
2023,04,19,11,12,8.50
2023,04,19,11,13,8.50
2023,04,19,11,14,8.40
2023,04,19,11,15,8.40
2023,04,19,11,16,8.30
2023,04,19,11,17,8.20
2023,04,19,11,18,8.20
2023,04,19,11,19,8.00
2023,04,19,11,20,7.90
2023,04,19,11,21,7.70
2023,04,19,11,22,7.70
2023,04,19,11,23,7.70
2023,04,19,11,24,7.70
2023,04,19,11,25,7.70
2023,04,19,11,26,7.70
2023,04,19,11,27,7.70
2023,04,19,11,28,7.70
2023,04,19,11,29,7.70
2023,04,19,11,30,7.70
2023,04,19,11,31,7.70
2023,04,19,11,47,6.00
2023,04,19,11,48,5.90
2023,04,19,11,49,5.90
2023,04,19,11,50,5.80
2023,04,19,11,51,5.70
2023,04,19,11,52,5.70
2023,04,19,11,53,5.60
2023,04,19,11,54,5.60
2023,04,19,11,55,5.50
2023,04,19,11,56,5.50
2023,04,19,11,57,5.50
2023,04,19,11,58,5.40
2023,04,19,11,59,5.40
2023,04,19,12,00,5.50
2023,04,19,12,01,5.50
2023,04,19,12,02,5.50
2023,04,19,12,03,5.60
2023,04,19,12,04,5.60
2023,04,19,12,05,5.60
2023,04,19,12,06,5.60
2023,04,19,12,07,5.70
2023,04,19,12,08,5.70
2023,04,19,12,09,5.70
2023,04,19,12,10,5.80
2023,04,19,12,11,5.80
2023,04,19,12,12,5.80
2023,04,19,12,13,5.80
2023,04,19,12,14,5.80
2023,04,19,12,15,5.90
2023,04,19,12,16,5.90
2023,04,19,12,17,5.90
2023,04,19,12,18,5.90
2023,04,19,12,19,6.00
2023,04,19,12,20,6.00
2023,04,19,12,21,6.00
2023,04,19,12,22,6.00
2023,04,19,12,23,6.10
2023,04,19,12,24,6.10
2023,04,19,12,25,6.10
2023,04,19,12,26,6.10
2023,04,19,12,27,6.10
2023,04,19,12,28,6.00
2023,04,19,12,29,6.00
2023,04,19,12,30,6.00
2023,04,19,12,31,6.00
2023,04,19,12,32,6.00
2023,04,19,12,33,6.00
2023,04,19,12,34,6.00
2023,04,19,12,35,6.00
2023,04,19,12,36,6.10
2023,04,19,12,37,6.10
2023,04,19,12,38,6.10
2023,04,19,12,39,6.10
2023,04,19,12,40,6.10
2023,04,19,12,41,6.10
2023,04,19,12,42,6.10
2023,04,19,12,43,6.10
2023,04,19,12,44,6.10
2023,04,19,12,45,6.20
2023,04,19,12,46,6.20
2023,04,19,12,47,6.20
2023,04,19,12,48,6.20
2023,04,19,12,49,6.30
2023,04,19,12,50,6.30
2023,04,19,12,51,6.30
2023,04,19,12,52,6.30
2023,04,19,12,53,6.30
2023,04,19,12,54,6.40
2023,04,19,12,55,6.40
2023,04,19,12,56,6.50
2023,04,19,12,57,6.60
2023,04,19,12,58,6.60
2023,04,19,12,59,6.60
2023,04,19,13,00,6.60
2023,04,19,13,01,6.60
2023,04,19,13,02,6.70
2023,04,19,13,03,6.80
2023,04,19,13,04,6.80
2023,04,19,13,05,6.90
2023,04,19,13,06,7.00
2023,04,19,13,07,7.10
2023,04,19,13,08,7.20
2023,04,19,13,09,7.30
2023,04,19,13,10,7.30
2023,04,19,13,11,7.40
2023,04,19,13,12,7.40
2023,04,19,13,13,7.50
2023,04,19,13,14,7.50
2023,04,19,13,15,7.60
2023,04,19,13,16,7.70
2023,04,19,13,17,7.70
2023,04,19,13,18,7.80
2023,04,19,13,19,7.80
2023,04,19,13,20,7.80
2023,04,19,13,21,7.80
2023,04,19,13,22,7.90
2023,04,19,13,23,7.90
2023,04,19,13,24,8.00
2023,04,19,13,25,8.10
2023,04,19,13,26,8.20
2023,04,19,13,27,8.30
2023,04,19,13,28,8.40
2023,04,19,13,29,8.40
2023,04,19,13,30,8.40
2023,04,19,13,31,8.50
2023,04,19,13,32,8.50
2023,04,19,13,33,8.60
2023,04,19,13,34,8.70
2023,04,19,13,35,8.80
2023,04,19,13,36,8.90
2023,04,19,13,37,8.90
2023,04,19,13,38,9.00
2023,04,19,13,39,9.00
2023,04,19,13,40,9.10
2023,04,19,13,41,9.10
2023,04,19,13,42,9.10
2023,04,19,13,43,9.20
2023,04,19,13,44,9.20
2023,04,19,13,45,9.10
2023,04,19,13,46,9.10
2023,04,19,13,47,9.10
2023,04,19,13,48,9.10
2023,04,19,13,49,9.10
2023,04,19,13,50,9.00
2023,04,19,13,51,8.90
2023,04,19,13,52,8.80
2023,04,19,13,53,8.70
2023,04,19,13,54,8.60
2023,04,19,13,55,8.60
2023,04,19,13,56,8.60
2023,04,19,13,57,8.60
2023,04,19,13,58,8.60
2023,04,19,13,59,8.50
2023,04,19,14,00,8.60
2023,04,19,14,01,8.60
2023,04,19,14,02,8.60
2023,04,19,14,03,8.60
2023,04,19,14,04,8.60
2023,04,19,14,05,8.50
2023,04,19,14,06,8.50
2023,04,19,14,07,8.50
2023,04,19,14,08,8.50
2023,04,19,14,09,8.50
2023,04,19,14,10,8.50
2023,04,19,14,11,8.50
2023,04,19,14,12,8.50
2023,04,19,14,13,8.60
2023,04,19,14,14,8.60
2023,04,19,14,15,8.60
2023,04,19,14,16,8.60
2023,04,19,14,17,8.60
2023,04,19,14,18,8.70
2023,04,19,14,19,8.70
2023,04,19,14,20,8.70
2023,04,19,14,21,8.80
2023,04,19,14,22,8.80
2023,04,19,14,23,8.80
2023,04,19,14,24,8.90
2023,04,19,14,25,9.00
2023,04,19,14,26,9.00
2023,04,19,14,27,9.10
2023,04,19,14,28,9.20
2023,04,19,14,29,9.20
2023,04,19,14,30,9.20
2023,04,19,14,31,9.20
2023,04,19,14,32,9.20
2023,04,19,14,33,9.10
2023,04,19,14,34,9.10
2023,04,19,14,35,9.00
2023,04,19,14,36,8.90
2023,04,19,14,37,8.80
2023,04,19,14,38,8.70
2023,04,19,14,39,8.60
2023,04,19,14,40,8.50
2023,04,19,14,41,8.40
2023,04,19,14,42,8.40
2023,04,19,14,43,8.30
2023,04,19,14,44,8.20
2023,04,19,14,45,8.10
2023,04,19,14,46,8.10
2023,04,19,14,47,8.00
2023,04,19,14,48,8.00
2023,04,19,14,49,7.90
2023,04,19,14,50,7.90
2023,04,19,14,51,7.90
2023,04,19,14,52,7.80
2023,04,19,14,53,7.80
2023,04,19,14,54,7.80
2023,04,19,14,55,7.80
2023,04,19,14,56,7.90
2023,04,19,14,57,7.90
2023,04,19,14,58,7.90
2023,04,19,14,59,7.90
2023,04,19,15,00,7.90
2023,04,19,15,01,7.90
2023,04,19,15,02,7.90
2023,04,19,15,03,7.90
2023,04,19,15,04,8.00
2023,04,19,15,05,8.00
2023,04,19,15,06,8.10
2023,04,19,15,07,8.20
2023,04,19,15,08,8.20
2023,04,19,15,09,8.20
2023,04,19,15,10,8.20
2023,04,19,15,11,8.20
2023,04,19,15,12,8.20
2023,04,19,15,13,8.20
2023,04,19,15,14,8.20
2023,04,19,15,15,8.20
2023,04,19,15,16,8.10
2023,04,19,15,17,8.10
2023,04,19,15,18,8.10
2023,04,19,15,19,8.00
2023,04,19,15,20,8.00
2023,04,19,15,21,8.00
2023,04,19,15,22,8.00
2023,04,19,15,23,7.90
2023,04,19,15,24,7.90
2023,04,19,15,25,7.90
2023,04,19,15,26,7.90
2023,04,19,15,27,7.90
2023,04,19,15,28,7.90
2023,04,19,15,29,7.90
2023,04,19,15,30,8.00
2023,04,19,15,31,8.00
2023,04,19,15,32,8.00
2023,04,19,15,33,8.00
2023,04,19,15,34,8.10
2023,04,19,15,35,8.10
2023,04,19,15,36,8.20
2023,04,19,15,37,8.20
2023,04,19,15,38,8.30
2023,04,19,15,39,8.30
2023,04,19,15,40,8.30
2023,04,19,15,41,8.40
2023,04,19,15,42,8.40
2023,04,19,15,43,8.40
2023,04,19,15,44,8.40
2023,04,19,15,45,8.40
2023,04,19,15,46,8.40
2023,04,19,15,47,8.40
2023,04,19,15,48,8.40
2023,04,19,15,49,8.40
2023,04,19,15,50,8.40
2023,04,19,15,51,8.40
2023,04,19,15,52,8.40
2023,04,19,15,53,8.40
2023,04,19,15,54,8.40
2023,04,19,15,55,8.40
2023,04,19,15,56,8.40
2023,04,19,15,57,8.50
2023,04,19,15,58,8.50
2023,04,19,15,59,8.60
2023,04,19,16,00,8.60
2023,04,19,16,01,8.60
2023,04,19,16,02,8.60
2023,04,19,16,03,8.70
2023,04,19,16,04,8.70
2023,04,19,16,05,8.80
2023,04,19,16,06,8.80
2023,04,19,16,07,8.90
2023,04,19,16,08,9.00
2023,04,19,16,09,9.00
2023,04,19,16,10,9.10
2023,04,19,16,11,9.10
2023,04,19,16,12,9.10
2023,04,19,16,13,9.20
2023,04,19,16,14,9.20
2023,04,19,16,15,9.20
2023,04,19,16,16,9.20
2023,04,19,16,17,9.10
2023,04,19,16,18,9.10
2023,04,19,16,19,9.00
2023,04,19,16,20,9.00
2023,04,19,16,21,9.10
2023,04,19,16,22,9.10
2023,04,19,16,23,9.20
2023,04,19,16,24,9.30
2023,04,19,16,25,9.30
2023,04,19,16,26,9.30
2023,04,19,16,27,9.30
2023,04,19,16,28,9.40
2023,04,19,16,29,9.40
2023,04,19,16,30,9.50
2023,04,19,16,31,9.60
2023,04,19,16,32,9.70
2023,04,19,16,33,9.80
2023,04,19,16,34,10.00
2023,04,19,16,35,10.10
2023,04,19,16,36,10.20
2023,04,19,16,37,10.30
2023,04,19,16,38,10.30
2023,04,19,16,39,10.50
2023,04,19,16,40,10.60
2023,04,19,16,41,10.70
2023,04,19,16,42,10.80
2023,04,19,16,43,10.90
2023,04,19,16,44,11.00
2023,04,19,16,45,11.10
2023,04,19,16,46,11.10
2023,04,19,16,47,11.10
2023,04,19,16,48,11.10
2023,04,19,16,49,10.90
2023,04,19,16,50,10.80
2023,04,19,16,51,10.70
2023,04,19,16,52,10.70
2023,04,19,16,53,10.60
2023,04,19,16,54,10.60
2023,04,19,16,55,10.60
2023,04,19,16,56,10.60
2023,04,19,16,57,10.70
2023,04,19,16,58,10.80
2023,04,19,16,59,10.80
2023,04,19,17,00,10.70
2023,04,19,17,01,10.60
2023,04,19,17,02,10.50
2023,04,19,17,03,10.40
2023,04,19,17,04,10.30
2023,04,19,17,05,10.30
2023,04,19,17,06,10.20
2023,04,19,17,07,10.20
2023,04,19,17,08,10.20
2023,04,19,17,09,10.20
2023,04,19,17,10,10.10
2023,04,19,17,11,10.10
2023,04,19,17,12,10.20
2023,04,19,17,13,10.20
2023,04,19,17,14,10.20
2023,04,19,17,15,10.30
2023,04,19,17,16,10.30
2023,04,19,17,17,10.40
2023,04,19,17,18,10.40
2023,04,19,17,19,10.40
2023,04,19,17,20,10.50
2023,04,19,17,21,10.50
2023,04,19,17,22,10.60
2023,04,19,17,23,10.60
2023,04,19,17,24,10.70
2023,04,19,17,25,10.70
2023,04,19,17,26,10.70
2023,04,19,17,27,10.60
2023,04,19,17,28,10.60
2023,04,19,17,29,10.50
2023,04,19,17,30,10.50
2023,04,19,17,31,10.50
2023,04,19,17,32,10.40
2023,04,19,17,33,10.20
2023,04,19,17,34,9.90
2023,04,19,17,35,9.80
2023,04,19,17,36,9.70
2023,04,19,17,37,9.60
2023,04,19,17,38,9.50
2023,04,19,17,39,9.50
2023,04,19,17,40,9.50
2023,04,19,17,41,9.40
2023,04,19,17,42,9.30
2023,04,19,17,43,9.30
2023,04,19,17,44,9.30
2023,04,19,17,45,9.30
2023,04,19,17,46,9.30
2023,04,19,17,47,9.30
2023,04,19,17,48,9.20
2023,04,19,17,49,9.20
2023,04,19,17,50,9.10
2023,04,19,17,51,9.10
2023,04,19,17,52,9.00
2023,04,19,17,53,9.00
2023,04,19,17,54,8.90
2023,04,19,17,55,8.90
2023,04,19,17,56,8.80
2023,04,19,17,57,8.70
2023,04,19,17,58,8.60
2023,04,19,17,59,8.50
2023,04,19,18,00,8.50
2023,04,19,18,01,8.40
2023,04,19,18,02,8.30
2023,04,19,18,03,8.30
2023,04,19,18,04,8.20
2023,04,19,18,05,8.20
2023,04,19,18,06,8.10
2023,04,19,18,07,8.10
2023,04,19,18,08,8.10
2023,04,19,18,09,8.10
2023,04,19,18,10,8.10
2023,04,19,18,11,8.10
2023,04,19,18,12,8.10
2023,04,19,18,13,8.10
2023,04,19,18,14,8.10
2023,04,19,18,15,8.10
2023,04,19,18,16,8.20
2023,04,19,18,17,8.20
2023,04,19,18,18,8.30
2023,04,19,18,19,8.30
2023,04,19,18,20,8.30
2023,04,19,18,21,8.40
2023,04,19,18,22,8.50
2023,04,19,18,23,8.60
2023,04,19,18,24,8.70
2023,04,19,18,25,8.80
2023,04,19,18,26,8.90
2023,04,19,18,27,9.00
2023,04,19,18,28,9.10
2023,04,19,18,29,9.10
2023,04,19,18,30,9.10
2023,04,19,18,31,9.10
2023,04,19,18,32,9.10
2023,04,19,18,33,9.20
2023,04,19,18,34,9.40
2023,04,19,18,35,9.50
2023,04,19,18,36,9.60
2023,04,19,18,37,9.80
2023,04,19,18,38,9.90
2023,04,19,18,39,10.00
2023,04,19,18,40,10.00
2023,04,19,18,41,10.10
2023,04,19,18,42,10.00
2023,04,19,18,43,9.90
2023,04,19,18,44,10.00
2023,04,19,18,45,10.00
2023,04,19,18,46,10.10
2023,04,19,18,47,10.10
2023,04,19,18,48,10.10
2023,04,19,18,49,10.10
2023,04,19,18,50,10.10
2023,04,19,18,51,9.90
2023,04,19,18,52,9.90
2023,04,19,18,53,9.80
2023,04,19,18,54,9.70
2023,04,19,18,55,9.60
2023,04,19,18,56,9.60
2023,04,19,18,57,9.60
2023,04,19,18,58,9.50
2023,04,19,18,59,9.40
2023,04,19,19,00,9.30
2023,04,19,19,01,9.20
2023,04,19,19,02,9.20
2023,04,19,19,03,9.20
2023,04,19,19,04,9.30
2023,04,19,19,05,9.30
2023,04,19,19,06,9.30
2023,04,19,19,07,9.30
2023,04,19,19,08,9.40
2023,04,19,19,09,9.40
2023,04,19,19,10,9.40
2023,04,19,19,11,9.40
2023,04,19,19,12,9.30
2023,04,19,19,13,9.30
2023,04,19,19,14,9.30
2023,04,19,19,15,9.30
2023,04,19,19,16,9.30
2023,04,19,19,17,9.30
2023,04,19,19,18,9.30
2023,04,19,19,19,9.30
2023,04,19,19,20,9.30
2023,04,19,19,21,9.30
2023,04,19,19,22,9.30
2023,04,19,19,23,9.30
2023,04,19,19,24,9.30
2023,04,19,19,25,9.30
